Precipitable_Water
0.81 0.78 0.77 0.77 0.79 0.78 0.72 0.72 0.75 0.78 0.75 0.50 0.38 0.39 0.26 0.32 0.37 0.44 0.47 0.56 0.57 0.41 0.32 0.38 0.37 0.35 0.38 0.42 0.40 0.41 0.38 0.35 0.35 0.30 0.28 0.23 0.24 0.22 0.21 0.23 0.22 0.25 0.24 0.23 0.23 0.25 0.23 0.25 0.24 0.26 0.27 0.29 0.32 0.34 0.34 0.35 0.34 0.35 0.33 0.37 0.39 0.47 0.36 0.34 0.36 0.45 0.52 0.57 0.61 0.62 0.64 0.63 0.56 0.57 0.60 0.55 0.49 0.52 0.43 0.36 0.36 0.34 0.37 0.37 0.41 0.32 0.48
0.85 0.82 0.79 0.77 0.78 0.80 0.77 0.74 0.77 0.79 0.78 0.62 0.51 0.33 0.28 0.37 0.43 0.44 0.57 0.66 0.54 0.38 0.26 0.29 0.33 0.35 0.41 0.41 0.39 0.41 0.37 0.34 0.31 0.29 0.28 0.24 0.24 0.22 0.21 0.22 0.23 0.21 0.23 0.22 0.22 0.26 0.19 0.26 0.27 0.27 0.29 0.27 0.35 0.34 0.35 0.35 0.33 0.33 0.33 0.31 0.39 0.31 0.36 0.36 0.33 0.35 0.39 0.42 0.48 0.49 0.57 0.59 0.57 0.57 0.60 0.61 0.58 0.56 0.51 0.46 0.42 0.31 0.36 0.39 0.35 0.29 0.44
0.87 0.85 0.82 0.80 0.79 0.80 0.80 0.75 0.77 0.80 0.80 0.75 0.55 0.32 0.36 0.44 0.51 0.50 0.51 0.66 0.53 0.37 0.38 0.36 0.35 0.37 0.37 0.37 0.35 0.35 0.34 0.34 0.31 0.30 0.27 0.28 0.27 0.24 0.23 0.23 0.22 0.22 0.24 0.26 0.25 0.27 0.24 0.23 0.30 0.29 0.30 0.31 0.36 0.36 0.34 0.35 0.34 0.40 0.41 0.40 0.40 0.32 0.35 0.37 0.31 0.30 0.29 0.32 0.33 0.36 0.41 0.48 0.59 0.63 0.62 0.61 0.57 0.52 0.46 0.34 0.36 0.27 0.36 0.42 0.36 0.39 0.57
0.92 0.89 0.86 0.83 0.81 0.80 0.81 0.76 0.76 0.79 0.79 0.79 0.61 0.44 0.42 0.42 0.33 0.43 0.47 0.58 0.57 0.52 0.56 0.51 0.47 0.42 0.41 0.37 0.37 0.37 0.32 0.33 0.28 0.27 0.27 0.29 0.27 0.26 0.25 0.23 0.21 0.21 0.24 0.25 0.25 0.25 0.28 0.24 0.26 0.26 0.26 0.29 0.33 0.36 0.36 0.35 0.34 0.38 0.42 0.41 0.38 0.33 0.41 0.44 0.42 0.39 0.37 0.40 0.46 0.55 0.59 0.57 0.51 0.58 0.60 0.60 0.63 0.63 0.54 0.49 0.37 0.30 0.38 0.37 0.51 0.55 0.59
0.97 0.95 0.92 0.88 0.84 0.83 0.83 0.79 0.77 0.81 0.80 0.79 0.66 0.56 0.49 0.54 0.41 0.44 0.39 0.52 0.54 0.55 0.58 0.55 0.55 0.45 0.52 0.39 0.41 0.36 0.33 0.34 0.30 0.30 0.26 0.28 0.27 0.27 0.25 0.25 0.21 0.20 0.21 0.23 0.25 0.28 0.25 0.29 0.26 0.27 0.25 0.27 0.29 0.35 0.36 0.37 0.39 0.38 0.36 0.40 0.36 0.34 0.34 0.41 0.44 0.43 0.44 0.50 0.52 0.61 0.61 0.54 0.58 0.57 0.57 0.65 0.62 0.62 0.53 0.44 0.41 0.57 0.38 0.28 0.56 0.62 0.54
0.99 1.00 0.98 0.96 0.92 0.89 0.89 0.87 0.82 0.86 0.85 0.83 0.77 0.51 0.56 0.41 0.54 0.60 0.65 0.49 0.45 0.47 0.49 0.56 0.54 0.57 0.54 0.46 0.48 0.42 0.37 0.35 0.29 0.30 0.31 0.30 0.31 0.26 0.26 0.27 0.24 0.24 0.23 0.23 0.22 0.25 0.26 0.26 0.23 0.26 0.27 0.24 0.25 0.23 0.30 0.34 0.39 0.39 0.36 0.39 0.34 0.33 0.33 0.40 0.42 0.42 0.46 0.51 0.51 0.58 0.58 0.59 0.62 0.61 0.59 0.59 0.65 0.62 0.53 0.55 0.60 0.54 0.39 0.36 0.54 0.63 0.56
0.98 1.01 1.02 1.01 0.98 0.96 0.96 0.94 0.88 0.92 0.87 0.87 0.78 0.55 0.62 0.58 0.61 0.62 0.74 0.52 0.59 0.59 0.59 0.60 0.57 0.52 0.53 0.49 0.48 0.43 0.40 0.36 0.35 0.31 0.30 0.30 0.30 0.30 0.24 0.26 0.27 0.27 0.26 0.24 0.21 0.24 0.20 0.23 0.27 0.24 0.24 0.22 0.25 0.25 0.26 0.30 0.35 0.36 0.36 0.37 0.39 0.36 0.35 0.39 0.41 0.40 0.46 0.49 0.54 0.54 0.53 0.58 0.58 0.59 0.59 0.61 0.63 0.63 0.66 0.64 0.68 0.64 0.58 0.59 0.64 0.65 0.65
0.98 1.01 1.04 1.04 1.03 1.00 0.99 1.00 0.96 0.96 0.91 0.86 0.71 0.66 0.53 0.48 0.45 0.48 0.64 0.64 0.59 0.61 0.63 0.60 0.55 0.48 0.55 0.46 0.50 0.48 0.44 0.38 0.39 0.35 0.31 0.29 0.30 0.34 0.29 0.29 0.31 0.31 0.30 0.29 0.26 0.27 0.26 0.24 0.21 0.26 0.21 0.22 0.28 0.30 0.31 0.33 0.36 0.35 0.35 0.37 0.41 0.32 0.35 0.46 0.44 0.41 0.44 0.52 0.57 0.57 0.54 0.53 0.53 0.60 0.61 0.58 0.62 0.66 0.69 0.71 0.70 0.70 0.65 0.65 0.64 0.64 0.65
0.98 1.00 1.02 1.05 1.07 1.05 1.03 1.04 1.03 0.99 0.97 0.71 0.69 0.66 0.68 0.60 0.63 0.61 0.46 0.41 0.48 0.57 0.59 0.53 0.51 0.47 0.54 0.49 0.53 0.49 0.46 0.43 0.44 0.39 0.37 0.32 0.31 0.33 0.32 0.34 0.34 0.34 0.33 0.32 0.32 0.34 0.30 0.28 0.26 0.24 0.21 0.19 0.28 0.27 0.31 0.36 0.33 0.35 0.35 0.36 0.37 0.35 0.35 0.40 0.40 0.38 0.42 0.52 0.53 0.53 0.54 0.54 0.53 0.55 0.56 0.56 0.56 0.55 0.64 0.61 0.74 0.69 0.64 0.66 0.64 0.58 0.63
0.99 0.97 0.97 1.00 1.05 1.06 1.04 1.04 1.05 1.01 1.00 0.74 0.69 0.62 0.77 0.73 0.75 0.71 0.58 0.36 0.47 0.43 0.52 0.53 0.50 0.44 0.56 0.58 0.57 0.51 0.49 0.50 0.50 0.37 0.36 0.38 0.37 0.36 0.35 0.36 0.34 0.33 0.32 0.33 0.34 0.35 0.34 0.31 0.29 0.27 0.24 0.24 0.26 0.31 0.31 0.32 0.32 0.34 0.33 0.37 0.33 0.35 0.34 0.33 0.34 0.29 0.37 0.45 0.51 0.51 0.51 0.47 0.42 0.47 0.56 0.60 0.64 0.70 0.73 0.76 0.77 0.76 0.79 0.66 0.59 0.62 0.79
0.99 0.98 0.99 1.00 1.02 1.04 1.03 1.03 1.03 1.03 0.97 0.80 0.70 0.67 0.75 0.68 0.62 0.65 0.65 0.39 0.38 0.42 0.41 0.43 0.46 0.56 0.59 0.62 0.58 0.60 0.55 0.51 0.51 0.38 0.35 0.38 0.37 0.39 0.39 0.37 0.34 0.33 0.31 0.35 0.40 0.38 0.35 0.33 0.30 0.28 0.26 0.24 0.24 0.28 0.31 0.33 0.34 0.34 0.34 0.35 0.34 0.36 0.34 0.31 0.35 0.27 0.31 0.40 0.46 0.49 0.43 0.32 0.35 0.66 0.70 0.69 0.62 0.68 0.64 0.65 0.71 0.77 0.78 0.76 0.85 0.84 0.90
0.93 0.95 0.99 1.01 1.03 1.03 1.02 1.01 1.01 1.03 0.99 0.96 0.92 0.75 0.79 0.85 0.78 0.71 0.58 0.37 0.32 0.43 0.36 0.33 0.43 0.50 0.51 0.54 0.57 0.56 0.54 0.51 0.47 0.49 0.38 0.38 0.39 0.40 0.39 0.37 0.35 0.31 0.35 0.39 0.37 0.34 0.32 0.33 0.30 0.28 0.27 0.26 0.22 0.24 0.32 0.30 0.35 0.40 0.40 0.35 0.35 0.34 0.34 0.32 0.34 0.27 0.28 0.38 0.40 0.36 0.28 0.33 0.58 0.73 0.78 0.79 0.77 0.76 0.71 0.73 0.76 0.78 0.81 0.81 0.81 0.88 0.91
0.92 0.91 0.90 0.94 0.99 1.03 1.02 1.01 0.99 1.00 1.02 0.98 0.94 0.79 0.85 0.90 0.77 0.71 0.64 0.49 0.35 0.35 0.29 0.30 0.40 0.44 0.53 0.54 0.55 0.57 0.59 0.56 0.52 0.48 0.44 0.39 0.39 0.40 0.40 0.38 0.36 0.37 0.41 0.37 0.35 0.30 0.24 0.22 0.23 0.22 0.22 0.21 0.21 0.24 0.28 0.31 0.35 0.38 0.39 0.40 0.36 0.34 0.32 0.35 0.32 0.33 0.35 0.31 0.34 0.24 0.28 0.51 0.62 0.70 0.78 0.84 0.82 0.78 0.74 0.65 0.74 0.79 0.79 0.81 0.76 0.83 0.95
0.95 0.94 0.91 0.90 0.89 0.92 0.99 1.02 1.00 1.00 1.00 0.99 0.88 0.90 0.92 0.85 0.73 0.73 0.68 0.52 0.43 0.46 0.45 0.36 0.32 0.39 0.44 0.48 0.52 0.58 0.59 0.51 0.49 0.46 0.39 0.41 0.40 0.40 0.41 0.41 0.41 0.42 0.41 0.39 0.33 0.27 0.21 0.20 0.20 0.19 0.22 0.22 0.21 0.20 0.28 0.34 0.38 0.37 0.36 0.37 0.37 0.34 0.34 0.31 0.27 0.36 0.26 0.32 0.33 0.34 0.51 0.50 0.55 0.58 0.63 0.68 0.61 0.64 0.61 0.51 0.62 0.79 0.83 0.82 0.80 0.83 0.88
0.95 0.94 0.93 0.93 0.91 0.87 0.87 0.94 1.00 1.00 0.99 1.00 0.93 0.91 0.92 0.87 0.81 0.77 0.79 0.65 0.47 0.46 0.44 0.29 0.37 0.37 0.40 0.44 0.55 0.56 0.53 0.49 0.46 0.42 0.45 0.43 0.40 0.42 0.42 0.43 0.44 0.42 0.41 0.37 0.32 0.25 0.21 0.23 0.20 0.20 0.22 0.19 0.17 0.21 0.35 0.30 0.37 0.37 0.36 0.37 0.39 0.37 0.29 0.33 0.24 0.30 0.34 0.30 0.29 0.34 0.36 0.31 0.43 0.60 0.70 0.76 0.77 0.78 0.78 0.69 0.57 0.80 0.86 0.89 0.85 0.82 0.86
0.95 0.94 0.93 0.94 0.95 0.93 0.89 0.87 0.90 0.98 1.00 1.02 0.94 0.88 0.89 0.90 0.91 0.88 0.78 0.67 0.56 0.38 0.44 0.49 0.49 0.39 0.34 0.39 0.54 0.55 0.51 0.48 0.46 0.44 0.41 0.41 0.41 0.43 0.44 0.45 0.44 0.43 0.41 0.37 0.34 0.28 0.22 0.20 0.21 0.20 0.21 0.22 0.29 0.26 0.27 0.31 0.30 0.34 0.37 0.36 0.37 0.37 0.35 0.34 0.27 0.29 0.32 0.32 0.28 0.31 0.29 0.36 0.54 0.61 0.71 0.79 0.82 0.83 0.82 0.63 0.50 0.74 0.85 0.89 0.87 0.83 0.87
0.92 0.92 0.91 0.91 0.93 0.93 0.92 0.89 0.85 0.86 0.95 1.01 0.91 0.87 0.83 0.95 0.88 0.80 0.76 0.73 0.60 0.43 0.50 0.55 0.52 0.47 0.37 0.36 0.49 0.55 0.55 0.48 0.47 0.41 0.38 0.39 0.41 0.43 0.43 0.45 0.46 0.43 0.40 0.35 0.31 0.27 0.22 0.21 0.25 0.24 0.26 0.31 0.25 0.25 0.31 0.27 0.26 0.27 0.32 0.33 0.32 0.31 0.31 0.32 0.29 0.28 0.31 0.32 0.29 0.29 0.35 0.38 0.54 0.66 0.73 0.81 0.89 0.85 0.73 0.44 0.44 0.70 0.85 0.91 0.91 0.86 0.87
0.93 0.91 0.90 0.90 0.90 0.92 0.93 0.90 0.86 0.82 0.84 0.96 0.96 0.85 0.89 1.00 0.96 0.90 0.78 0.67 0.57 0.54 0.53 0.52 0.44 0.39 0.38 0.36 0.40 0.54 0.60 0.56 0.51 0.52 0.47 0.48 0.45 0.41 0.41 0.43 0.41 0.44 0.44 0.35 0.31 0.23 0.22 0.22 0.23 0.22 0.22 0.35 0.37 0.35 0.25 0.30 0.24 0.27 0.26 0.28 0.27 0.27 0.30 0.32 0.27 0.28 0.31 0.30 0.31 0.36 0.40 0.53 0.64 0.66 0.76 0.81 0.89 0.73 0.50 0.41 0.59 0.76 0.84 0.90 0.93 0.91 0.91
0.93 0.93 0.93 0.91 0.90 0.91 0.92 0.90 0.87 0.82 0.81 0.84 0.93 0.90 0.87 0.98 0.99 0.92 0.77 0.70 0.62 0.49 0.55 0.56 0.59 0.46 0.47 0.49 0.47 0.53 0.57 0.56 0.53 0.46 0.46 0.44 0.46 0.53 0.52 0.47 0.46 0.38 0.41 0.35 0.32 0.27 0.24 0.27 0.35 0.30 0.25 0.31 0.36 0.30 0.32 0.25 0.25 0.31 0.29 0.26 0.26 0.29 0.31 0.36 0.36 0.32 0.29 0.33 0.29 0.31 0.41 0.58 0.66 0.70 0.76 0.85 0.67 0.45 0.43 0.63 0.83 0.85 0.84 0.91 0.92 0.89 0.92
0.90 0.91 0.91 0.92 0.90 0.90 0.90 0.89 0.86 0.82 0.79 0.81 0.82 0.75 0.84 0.98 1.02 0.97 0.78 0.64 0.66 0.60 0.63 0.57 0.53 0.44 0.49 0.41 0.44 0.48 0.52 0.54 0.56 0.52 0.48 0.45 0.57 0.57 0.48 0.42 0.48 0.45 0.39 0.40 0.31 0.33 0.27 0.28 0.32 0.35 0.28 0.30 0.33 0.42 0.33 0.33 0.36 0.30 0.29 0.30 0.25 0.29 0.27 0.29 0.31 0.38 0.39 0.37 0.32 0.30 0.26 0.60 0.67 0.69 0.66 0.76 0.53 0.57 0.69 0.80 0.87 0.91 0.90 0.89 0.89 0.91 0.93
0.86 0.85 0.85 0.86 0.87 0.87 0.87 0.84 0.81 0.80 0.78 0.79 0.79 0.71 0.70 0.93 1.00 1.02 0.97 0.81 0.67 0.57 0.59 0.69 0.65 0.55 0.55 0.48 0.55 0.59 0.57 0.55 0.55 0.51 0.52 0.55 0.62 0.57 0.41 0.40 0.44 0.46 0.38 0.38 0.34 0.35 0.33 0.31 0.36 0.33 0.37 0.33 0.39 0.36 0.30 0.32 0.33 0.38 0.34 0.32 0.28 0.36 0.25 0.30 0.35 0.41 0.34 0.34 0.30 0.32 0.47 0.62 0.75 0.66 0.52 0.66 0.69 0.83 0.87 0.85 0.81 0.90 0.89 0.88 0.89 0.94 0.98
0.82 0.80 0.80 0.81 0.81 0.81 0.80 0.77 0.76 0.78 0.79 0.79 0.76 0.73 0.64 0.81 0.92 0.97 0.99 0.94 0.72 0.62 0.65 0.73 0.72 0.61 0.61 0.63 0.65 0.73 0.72 0.69 0.66 0.62 0.54 0.53 0.61 0.62 0.59 0.56 0.54 0.53 0.52 0.52 0.45 0.44 0.43 0.42 0.43 0.34 0.31 0.34 0.39 0.34 0.37 0.31 0.29 0.38 0.45 0.38 0.23 0.36 0.29 0.35 0.31 0.48 0.40 0.38 0.45 0.58 0.69 0.73 0.80 0.80 0.77 0.84 0.90 0.95 0.99 0.96 0.91 0.89 0.90 0.98 0.94 0.94 1.00
0.80 0.79 0.78 0.78 0.77 0.77 0.76 0.74 0.75 0.77 0.78 0.78 0.76 0.69 0.64 0.73 0.81 0.95 0.96 0.78 0.83 0.83 0.86 0.80 0.75 0.65 0.60 0.58 0.67 0.75 0.77 0.80 0.76 0.72 0.69 0.60 0.58 0.65 0.63 0.58 0.56 0.65 0.62 0.60 0.49 0.49 0.49 0.44 0.37 0.40 0.35 0.35 0.35 0.36 0.40 0.39 0.35 0.39 0.35 0.42 0.37 0.49 0.47 0.49 0.41 0.43 0.57 0.64 0.66 0.71 0.71 0.76 0.81 0.88 0.92 0.91 0.94 1.02 1.04 0.98 0.92 0.96 0.97 0.99 0.96 0.99 1.01
0.79 0.78 0.78 0.78 0.77 0.76 0.76 0.75 0.75 0.78 0.79 0.79 0.77 0.70 0.69 0.75 0.81 0.86 0.86 0.83 0.74 0.63 0.69 0.75 0.65 0.46 0.38 0.42 0.58 0.75 0.80 0.78 0.79 0.82 0.84 0.76 0.60 0.59 0.65 0.66 0.69 0.66 0.64 0.63 0.67 0.56 0.57 0.53 0.49 0.48 0.35 0.43 0.42 0.36 0.34 0.34 0.36 0.44 0.41 0.40 0.46 0.51 0.52 0.45 0.35 0.48 0.40 0.37 0.60 0.59 0.59 0.70 0.79 0.81 0.90 0.97 0.99 1.00 1.02 0.98 0.97 0.97 1.00 0.99 1.01 1.02 1.02
0.79 0.80 0.79 0.79 0.78 0.77 0.76 0.76 0.77 0.79 0.81 0.79 0.77 0.80 0.81 0.76 0.82 0.84 0.71 0.59 0.66 0.62 0.49 0.56 0.58 0.59 0.59 0.62 0.67 0.68 0.74 0.79 0.82 0.81 0.81 0.79 0.72 0.63 0.59 0.67 0.73 0.63 0.61 0.65 0.70 0.62 0.62 0.52 0.50 0.45 0.36 0.50 0.45 0.37 0.46 0.38 0.39 0.47 0.37 0.43 0.43 0.41 0.55 0.45 0.40 0.39 0.34 0.38 0.53 0.58 0.62 0.66 0.74 0.79 0.76 0.80 0.90 0.97 1.00 1.00 1.00 1.00 1.03 1.01 0.98 1.01 0.98
0.78 0.78 0.78 0.78 0.78 0.76 0.76 0.77 0.77 0.78 0.78 0.79 0.80 0.74 0.70 0.70 0.86 0.92 0.86 0.80 0.77 0.69 0.53 0.51 0.57 0.65 0.67 0.55 0.48 0.58 0.72 0.73 0.74 0.77 0.78 0.78 0.78 0.74 0.73 0.76 0.74 0.77 0.73 0.70 0.65 0.59 0.58 0.54 0.52 0.51 0.41 0.44 0.53 0.42 0.44 0.47 0.48 0.53 0.44 0.45 0.48 0.51 0.54 0.40 0.46 0.37 0.45 0.52 0.57 0.60 0.62 0.62 0.66 0.71 0.76 0.79 0.84 0.88 0.92 0.95 0.96 0.97 0.95 0.95 0.96 0.98 0.98
0.74 0.76 0.78 0.78 0.77 0.75 0.77 0.78 0.78 0.78 0.80 0.81 0.82 0.81 0.78 0.80 0.88 0.87 0.81 0.80 0.65 0.54 0.59 0.55 0.66 0.64 0.62 0.49 0.51 0.56 0.65 0.71 0.73 0.74 0.74 0.76 0.75 0.78 0.79 0.77 0.73 0.72 0.69 0.65 0.66 0.63 0.60 0.57 0.53 0.50 0.49 0.47 0.55 0.50 0.51 0.50 0.48 0.46 0.44 0.48 0.54 0.50 0.43 0.54 0.51 0.41 0.39 0.38 0.47 0.54 0.40 0.41 0.55 0.65 0.69 0.75 0.84 0.86 0.86 0.89 0.89 0.90 0.89 0.91 0.91 0.93 1.00
0.72 0.75 0.76 0.75 0.75 0.75 0.78 0.79 0.79 0.80 0.83 0.85 0.85 0.83 0.86 0.82 0.83 0.90 0.97 0.93 0.75 0.55 0.61 0.58 0.56 0.57 0.64 0.47 0.51 0.55 0.63 0.70 0.71 0.71 0.71 0.71 0.73 0.76 0.73 0.71 0.71 0.66 0.64 0.57 0.53 0.52 0.52 0.49 0.48 0.56 0.56 0.57 0.49 0.47 0.56 0.58 0.55 0.48 0.45 0.46 0.51 0.44 0.49 0.49 0.42 0.39 0.38 0.51 0.56 0.58 0.54 0.52 0.57 0.61 0.68 0.74 0.77 0.78 0.75 0.77 0.78 0.82 0.86 0.88 0.85 0.84 0.90
0.74 0.75 0.76 0.76 0.76 0.76 0.77 0.78 0.79 0.82 0.86 0.87 0.85 0.83 0.83 0.89 0.93 0.98 1.00 1.05 0.96 0.78 0.71 0.71 0.72 0.58 0.40 0.41 0.51 0.48 0.58 0.65 0.66 0.67 0.69 0.69 0.70 0.73 0.70 0.69 0.66 0.66 0.63 0.57 0.54 0.52 0.48 0.48 0.53 0.49 0.48 0.59 0.49 0.45 0.47 0.42 0.40 0.37 0.42 0.51 0.54 0.57 0.58 0.49 0.46 0.47 0.50 0.56 0.60 0.60 0.58 0.54 0.61 0.69 0.70 0.71 0.74 0.71 0.68 0.72 0.75 0.76 0.77 0.80 0.81 0.83 0.81
0.74 0.75 0.76 0.78 0.78 0.79 0.79 0.81 0.84 0.87 0.89 0.87 0.83 0.74 0.66 0.78 0.99 0.97 1.05 1.04 1.00 0.90 0.67 0.59 0.51 0.46 0.60 0.54 0.43 0.44 0.52 0.61 0.65 0.67 0.67 0.66 0.67 0.69 0.69 0.67 0.65 0.64 0.59 0.53 0.51 0.46 0.49 0.47 0.51 0.54 0.57 0.62 0.47 0.46 0.40 0.43 0.39 0.42 0.54 0.55 0.57 0.58 0.56 0.52 0.51 0.43 0.47 0.58 0.59 0.62 0.62 0.65 0.72 0.76 0.77 0.78 0.78 0.74 0.68 0.68 0.69 0.70 0.74 0.80 0.79 0.81 0.85
0.73 0.75 0.77 0.79 0.80 0.80 0.81 0.83 0.86 0.89 0.90 0.84 0.76 0.60 0.55 0.51 0.79 1.08 1.07 1.06 1.06 0.90 0.75 0.70 0.56 0.64 0.51 0.55 0.51 0.44 0.49 0.58 0.63 0.65 0.65 0.64 0.65 0.66 0.69 0.66 0.66 0.63 0.54 0.54 0.49 0.50 0.51 0.45 0.46 0.51 0.59 0.59 0.50 0.43 0.41 0.39 0.36 0.41 0.51 0.54 0.56 0.54 0.51 0.49 0.55 0.58 0.57 0.58 0.64 0.67 0.67 0.65 0.72 0.74 0.74 0.77 0.80 0.80 0.74 0.72 0.73 0.73 0.74 0.74 0.75 0.77 0.81
0.75 0.76 0.77 0.79 0.81 0.82 0.84 0.87 0.89 0.90 0.89 0.81 0.69 0.61 0.69 0.78 0.94 1.05 1.09 1.08 1.04 0.85 0.71 0.59 0.53 0.46 0.40 0.42 0.47 0.54 0.53 0.56 0.59 0.61 0.63 0.65 0.61 0.66 0.66 0.65 0.61 0.66 0.58 0.53 0.54 0.53 0.48 0.51 0.47 0.52 0.51 0.59 0.54 0.46 0.45 0.40 0.35 0.38 0.51 0.53 0.57 0.58 0.59 0.58 0.60 0.63 0.64 0.64 0.64 0.62 0.61 0.64 0.67 0.60 0.61 0.72 0.75 0.77 0.73 0.72 0.74 0.74 0.75 0.74 0.75 0.76 0.76
0.75 0.76 0.78 0.81 0.83 0.85 0.88 0.90 0.91 0.91 0.86 0.89 0.91 0.90 0.98 1.06 1.09 1.09 1.08 1.05 0.94 0.82 0.85 0.68 0.51 0.48 0.40 0.39 0.50 0.57 0.60 0.56 0.56 0.58 0.56 0.66 0.59 0.62 0.58 0.65 0.63 0.60 0.67 0.58 0.53 0.49 0.59 0.52 0.52 0.49 0.57 0.66 0.51 0.48 0.43 0.38 0.37 0.48 0.53 0.57 0.58 0.60 0.59 0.63 0.64 0.65 0.64 0.65 0.63 0.54 0.55 0.57 0.63 0.69 0.70 0.72 0.73 0.72 0.71 0.69 0.71 0.72 0.71 0.69 0.69 0.71 0.72
0.78 0.80 0.81 0.83 0.85 0.87 0.88 0.89 0.92 0.92 0.92 0.81 0.66 0.69 0.90 1.02 1.06 1.08 1.09 1.02 0.88 0.88 0.86 0.67 0.53 0.45 0.40 0.57 0.43 0.55 0.63 0.52 0.53 0.58 0.52 0.62 0.66 0.60 0.57 0.59 0.61 0.55 0.61 0.56 0.63 0.59 0.63 0.57 0.50 0.52 0.59 0.55 0.56 0.45 0.38 0.40 0.46 0.49 0.55 0.58 0.60 0.60 0.61 0.59 0.58 0.57 0.60 0.63 0.68 0.66 0.66 0.71 0.74 0.75 0.73 0.70 0.69 0.72 0.73 0.72 0.69 0.66 0.66 0.67 0.67 0.68 0.70
0.81 0.83 0.84 0.86 0.88 0.89 0.89 0.89 0.87 0.82 0.71 0.71 0.77 0.87 0.96 0.99 1.03 1.08 1.06 0.92 0.69 0.66 0.68 0.67 0.64 0.47 0.41 0.42 0.40 0.53 0.65 0.57 0.53 0.60 0.55 0.63 0.73 0.60 0.61 0.53 0.57 0.51 0.60 0.68 0.62 0.61 0.59 0.55 0.63 0.50 0.46 0.58 0.50 0.40 0.40 0.45 0.48 0.52 0.55 0.55 0.59 0.59 0.58 0.53 0.53 0.56 0.59 0.64 0.64 0.68 0.73 0.74 0.70 0.68 0.67 0.67 0.66 0.66 0.66 0.66 0.66 0.63 0.59 0.60 0.62 0.63 0.64
0.83 0.86 0.87 0.89 0.88 0.88 0.85 0.83 0.80 0.74 0.67 0.72 0.80 0.98 1.02 1.06 1.08 1.08 1.10 1.05 0.87 0.71 0.60 0.59 0.60 0.48 0.45 0.36 0.38 0.56 0.68 0.57 0.63 0.65 0.66 0.66 0.63 0.69 0.66 0.58 0.51 0.61 0.74 0.63 0.56 0.62 0.56 0.72 0.57 0.44 0.58 0.46 0.41 0.42 0.44 0.48 0.50 0.53 0.55 0.53 0.58 0.55 0.52 0.50 0.52 0.59 0.63 0.66 0.67 0.70 0.72 0.73 0.69 0.68 0.68 0.67 0.65 0.63 0.62 0.61 0.62 0.62 0.59 0.58 0.58 0.59 0.58
0.85 0.88 0.90 0.87 0.84 0.74 0.65 0.66 0.77 0.77 0.78 0.91 0.98 1.06 1.08 1.07 1.11 1.08 1.03 0.97 1.00 0.99 0.75 0.65 0.54 0.51 0.48 0.44 0.50 0.61 0.66 0.51 0.63 0.60 0.64 0.59 0.57 0.68 0.64 0.58 0.53 0.70 0.68 0.61 0.60 0.58 0.66 0.82 0.59 0.49 0.48 0.41 0.44 0.50 0.53 0.56 0.55 0.54 0.55 0.57 0.59 0.60 0.59 0.59 0.61 0.62 0.62 0.64 0.66 0.68 0.69 0.69 0.69 0.69 0.67 0.66 0.64 0.64 0.61 0.58 0.58 0.57 0.56 0.56 0.57 0.54 0.53
0.87 0.89 0.84 0.75 0.70 0.61 0.61 0.68 0.76 0.92 0.99 0.97 0.98 0.91 0.87 0.88 0.75 0.81 0.83 0.74 0.85 0.88 0.79 0.74 0.56 0.58 0.62 0.52 0.42 0.68 0.63 0.59 0.67 0.56 0.61 0.69 0.60 0.58 0.69 0.61 0.67 0.63 0.52 0.56 0.62 0.77 0.71 0.64 0.55 0.48 0.49 0.54 0.56 0.61 0.61 0.61 0.61 0.60 0.60 0.61 0.62 0.62 0.63 0.64 0.65 0.62 0.59 0.59 0.61 0.64 0.67 0.67 0.66 0.67 0.65 0.64 0.63 0.61 0.61 0.61 0.61 0.60 0.60 0.59 0.58 0.56 0.54
0.85 0.82 0.76 0.74 0.68 0.64 0.67 0.78 1.04 1.07 1.01 1.00 0.97 0.75 0.69 0.78 0.71 0.64 0.65 0.72 0.77 0.64 0.76 0.66 0.56 0.59 0.54 0.49 0.51 0.70 0.65 0.61 0.57 0.58 0.51 0.69 0.58 0.52 0.64 0.52 0.67 0.66 0.59 0.55 0.63 0.76 0.55 0.54 0.55 0.50 0.45 0.51 0.51 0.55 0.63 0.64 0.66 0.66 0.66 0.67 0.67 0.67 0.67 0.67 0.68 0.64 0.61 0.59 0.61 0.65 0.64 0.62 0.61 0.63 0.66 0.64 0.64 0.64 0.64 0.62 0.59 0.58 0.58 0.57 0.56 0.56 0.55
0.77 0.67 0.65 0.68 0.67 0.75 0.95 1.01 1.06 0.97 0.89 0.73 0.77 0.70 0.56 0.68 0.58 0.52 0.71 0.59 0.57 0.65 0.71 0.55 0.63 0.60 0.57 0.49 0.48 0.53 0.77 0.65 0.56 0.54 0.56 0.62 0.74 0.57 0.69 0.63 0.71 0.62 0.51 0.51 0.60 0.73 0.53 0.46 0.52 0.47 0.43 0.49 0.51 0.61 0.63 0.63 0.63 0.67 0.69 0.72 0.72 0.72 0.72 0.70 0.71 0.74 0.73 0.72 0.73 0.74 0.74 0.74 0.72 0.69 0.66 0.65 0.63 0.60 0.60 0.59 0.58 0.58 0.58 0.57 0.58 0.56 0.54
0.74 0.73 0.73 0.69 0.84 0.90 0.94 1.03 1.05 0.96 0.80 0.68 0.65 0.66 0.58 0.51 0.60 0.66 0.61 0.52 0.50 0.54 0.69 0.62 0.65 0.57 0.59 0.58 0.54 0.48 0.67 0.77 0.81 0.78 0.70 0.57 0.80 0.74 0.60 0.53 0.75 0.59 0.55 0.52 0.68 0.67 0.58 0.49 0.49 0.44 0.43 0.49 0.53 0.59 0.63 0.64 0.64 0.68 0.71 0.72 0.73 0.73 0.73 0.73 0.75 0.77 0.74 0.73 0.74 0.76 0.77 0.78 0.76 0.74 0.72 0.69 0.65 0.62 0.60 0.58 0.56 0.56 0.55 0.54 0.53 0.54 0.55
0.81 0.83 0.88 0.97 0.95 0.99 1.00 0.94 0.90 0.81 0.76 0.77 0.58 0.50 0.55 0.57 0.64 0.59 0.60 0.45 0.47 0.55 0.57 0.60 0.52 0.53 0.54 0.56 0.54 0.54 0.58 0.78 0.81 0.77 0.67 0.59 0.75 0.67 0.61 0.65 0.70 0.56 0.48 0.58 0.72 0.65 0.55 0.43 0.42 0.41 0.48 0.53 0.57 0.63 0.63 0.61 0.65 0.67 0.71 0.74 0.74 0.74 0.74 0.74 0.74 0.77 0.79 0.76 0.75 0.76 0.77 0.76 0.74 0.71 0.68 0.65 0.62 0.60 0.59 0.57 0.56 0.55 0.54 0.56 0.56 0.52 0.47
0.97 0.98 0.96 0.88 0.88 0.85 0.90 0.70 0.77 0.74 0.56 0.55 0.51 0.46 0.54 0.47 0.50 0.46 0.50 0.57 0.67 0.58 0.60 0.68 0.65 0.69 0.70 0.70 0.61 0.61 0.59 0.77 0.69 0.70 0.65 0.59 0.78 0.71 0.60 0.58 0.56 0.46 0.55 0.71 0.61 0.54 0.47 0.43 0.40 0.42 0.51 0.55 0.59 0.61 0.63 0.63 0.67 0.70 0.73 0.75 0.75 0.76 0.76 0.76 0.76 0.78 0.82 0.81 0.78 0.75 0.73 0.71 0.70 0.69 0.69 0.67 0.65 0.62 0.61 0.59 0.57 0.56 0.56 0.54 0.52 0.50 0.50
0.92 0.90 0.81 0.83 0.75 0.80 0.80 0.52 0.79 0.63 0.54 0.54 0.46 0.38 0.45 0.43 0.48 0.52 0.45 0.49 0.56 0.53 0.60 0.56 0.60 0.56 0.52 0.62 0.58 0.58 0.61 0.67 0.74 0.72 0.71 0.72 0.63 0.56 0.54 0.49 0.51 0.64 0.75 0.60 0.55 0.47 0.48 0.50 0.48 0.51 0.56 0.59 0.62 0.63 0.65 0.67 0.69 0.72 0.74 0.78 0.81 0.81 0.81 0.82 0.83 0.82 0.81 0.81 0.79 0.75 0.72 0.71 0.70 0.71 0.71 0.68 0.64 0.60 0.59 0.59 0.60 0.59 0.58 0.56 0.54 0.54 0.55
0.76 0.73 0.77 0.73 0.66 0.75 0.63 0.51 0.76 0.58 0.45 0.48 0.53 0.48 0.48 0.40 0.46 0.49 0.46 0.60 0.61 0.60 0.68 0.67 0.66 0.58 0.55 0.62 0.61 0.63 0.59 0.56 0.73 0.60 0.57 0.66 0.55 0.56 0.52 0.52 0.62 0.66 0.55 0.48 0.50 0.51 0.50 0.45 0.52 0.55 0.57 0.58 0.61 0.65 0.68 0.70 0.73 0.72 0.75 0.79 0.81 0.83 0.84 0.83 0.83 0.82 0.81 0.80 0.78 0.74 0.69 0.68 0.67 0.66 0.66 0.65 0.64 0.64 0.61 0.59 0.61 0.59 0.58 0.57 0.56 0.54 0.55
0.72 0.69 0.69 0.59 0.53 0.65 0.56 0.50 0.55 0.47 0.53 0.57 0.53 0.55 0.51 0.52 0.53 0.54 0.66 0.70 0.64 0.69 0.66 0.67 0.67 0.65 0.59 0.64 0.52 0.54 0.55 0.62 0.56 0.57 0.61 0.65 0.55 0.50 0.60 0.74 0.69 0.55 0.51 0.49 0.45 0.41 0.42 0.47 0.53 0.55 0.59 0.61 0.64 0.68 0.71 0.74 0.77 0.79 0.77 0.75 0.79 0.82 0.83 0.84 0.84 0.83 0.81 0.78 0.76 0.71 0.68 0.66 0.65 0.63 0.62 0.63 0.63 0.63 0.62 0.62 0.61 0.59 0.57 0.55 0.52 0.50 0.50
0.77 0.83 0.78 0.68 0.55 0.61 0.63 0.46 0.48 0.53 0.59 0.62 0.63 0.63 0.60 0.61 0.64 0.66 0.73 0.75 0.70 0.73 0.72 0.74 0.71 0.66 0.61 0.57 0.54 0.60 0.59 0.58 0.50 0.63 0.62 0.52 0.50 0.60 0.72 0.57 0.48 0.49 0.43 0.40 0.41 0.42 0.45 0.50 0.56 0.60 0.63 0.66 0.69 0.72 0.75 0.77 0.78 0.78 0.77 0.78 0.80 0.81 0.84 0.84 0.82 0.78 0.76 0.74 0.72 0.69 0.67 0.64 0.63 0.62 0.62 0.60 0.61 0.60 0.60 0.59 0.58 0.56 0.52 0.48 0.47 0.46 0.45
0.68 0.81 0.78 0.53 0.46 0.51 0.46 0.49 0.60 0.62 0.66 0.64 0.65 0.68 0.69 0.71 0.66 0.64 0.72 0.75 0.77 0.78 0.70 0.68 0.66 0.67 0.62 0.71 0.61 0.55 0.57 0.54 0.48 0.57 0.57 0.54 0.60 0.54 0.52 0.49 0.46 0.50 0.49 0.43 0.43 0.49 0.52 0.57 0.60 0.61 0.65 0.70 0.73 0.74 0.76 0.78 0.78 0.78 0.78 0.79 0.81 0.81 0.80 0.78 0.75 0.74 0.72 0.68 0.65 0.64 0.64 0.63 0.61 0.59 0.57 0.55 0.54 0.54 0.54 0.52 0.50 0.49 0.47 0.46 0.44 0.43 0.42
0.84 0.76 0.62 0.56 0.57 0.55 0.52 0.61 0.60 0.53 0.59 0.64 0.68 0.70 0.69 0.65 0.64 0.67 0.76 0.80 0.75 0.73 0.79 0.71 0.68 0.66 0.57 0.64 0.56 0.52 0.52 0.58 0.43 0.50 0.57 0.53 0.47 0.43 0.42 0.38 0.40 0.39 0.47 0.49 0.49 0.53 0.55 0.60 0.64 0.67 0.69 0.71 0.74 0.75 0.77 0.78 0.78 0.78 0.80 0.80 0.79 0.78 0.75 0.72 0.71 0.70 0.69 0.67 0.65 0.63 0.60 0.58 0.55 0.52 0.51 0.50 0.48 0.49 0.51 0.50 0.47 0.45 0.44 0.43 0.43 0.43 0.44
0.72 0.65 0.67 0.58 0.53 0.56 0.64 0.67 0.62 0.57 0.63 0.64 0.65 0.66 0.71 0.68 0.66 0.71 0.83 0.76 0.78 0.78 0.80 0.77 0.78 0.63 0.62 0.59 0.50 0.50 0.51 0.56 0.50 0.57 0.49 0.44 0.44 0.47 0.44 0.38 0.42 0.40 0.45 0.52 0.55 0.58 0.62 0.64 0.68 0.68 0.70 0.72 0.75 0.76 0.77 0.78 0.80 0.81 0.83 0.83 0.81 0.76 0.72 0.70 0.69 0.70 0.68 0.65 0.61 0.58 0.55 0.52 0.50 0.49 0.49 0.49 0.51 0.51 0.48 0.45 0.45 0.45 0.46 0.48 0.47 0.47 0.46
0.75 0.66 0.61 0.66 0.54 0.55 0.60 0.52 0.53 0.54 0.57 0.60 0.64 0.67 0.70 0.67 0.67 0.70 0.85 0.82 0.81 0.76 0.70 0.63 0.65 0.63 0.59 0.55 0.51 0.42 0.46 0.60 0.51 0.48 0.46 0.44 0.49 0.45 0.41 0.38 0.42 0.47 0.51 0.57 0.60 0.61 0.64 0.69 0.68 0.69 0.72 0.73 0.76 0.78 0.79 0.81 0.82 0.83 0.83 0.81 0.78 0.74 0.73 0.72 0.70 0.67 0.64 0.61 0.58 0.54 0.51 0.50 0.52 0.52 0.54 0.53 0.50 0.47 0.45 0.46 0.47 0.48 0.49 0.50 0.50 0.49 0.47
0.61 0.51 0.51 0.58 0.62 0.65 0.65 0.68 0.69 0.66 0.65 0.68 0.69 0.75 0.77 0.71 0.76 0.80 0.89 0.84 0.79 0.68 0.63 0.70 0.65 0.60 0.55 0.48 0.50 0.55 0.63 0.53 0.48 0.49 0.43 0.48 0.52 0.45 0.44 0.44 0.47 0.52 0.55 0.55 0.57 0.63 0.69 0.73 0.74 0.73 0.74 0.74 0.77 0.81 0.83 0.85 0.85 0.84 0.83 0.80 0.76 0.73 0.72 0.69 0.66 0.63 0.61 0.57 0.54 0.53 0.53 0.55 0.56 0.55 0.54 0.51 0.48 0.45 0.42 0.43 0.48 0.50 0.50 0.51 0.51 0.50 0.48
Wind_Speed
23 23 22 21 21 20 20 20 20 20 19 16 14 12 9 8 8 9 8 7 6 4 5 7 6 6 7 8 8 8 8 8 8 8 7 7 7 6 6 6 6 5 5 5 5 4 4 5 4 4 4 4 4 6 6 5 5 4 4 6 6 6 8 9 11 12 13 14 14 12 11 11 12 11 11 13 15 15 17 17 15 14 14 14 13 12 11
23 22 22 21 21 21 20 20 20 20 19 16 14 12 10 9 10 9 8 7 6 6 6 7 7 7 8 8 8 9 9 9 9 8 7 7 7 7 8 8 7 7 5 4 5 4 4 5 5 5 4 5 6 7 7 5 5 5 6 6 5 6 7 8 10 11 12 12 13 13 11 10 11 11 10 12 14 14 16 17 15 14 15 15 15 14 13
23 22 22 22 21 21 20 20 20 20 19 17 14 11 10 10 10 10 9 8 6 7 7 7 7 8 8 8 8 9 9 9 9 8 7 7 7 7 9 8 7 7 5 5 5 5 5 5 6 6 6 7 8 8 8 7 6 7 7 7 6 5 6 7 8 11 13 14 14 13 13 12 11 11 11 11 11 12 14 16 15 15 15 15 15 15 14
23 23 22 22 22 21 21 21 20 20 19 17 14 12 10 9 9 10 10 8 7 8 8 7 7 8 7 8 8 8 8 8 7 7 7 8 7 6 8 8 7 7 6 5 6 6 5 5 6 7 8 9 9 9 9 8 8 8 8 6 6 5 5 6 8 10 13 16 17 15 14 13 12 12 11 10 11 12 13 14 14 15 15 13 14 15 14
24 23 23 22 22 22 21 21 20 20 19 16 14 12 10 9 9 10 10 9 9 9 9 8 8 8 8 8 8 9 9 8 8 7 7 8 7 7 8 7 6 6 6 5 6 6 6 6 7 8 8 9 10 11 10 9 9 9 8 7 6 5 5 6 8 10 11 13 16 16 14 12 11 11 11 9 10 11 12 13 14 15 15 13 13 14 14
24 24 24 23 23 22 22 21 20 20 18 15 13 12 11 10 11 10 10 10 10 10 11 11 10 9 9 8 8 10 10 9 8 8 8 7 7 7 7 8 6 6 6 6 6 7 7 8 8 8 9 10 10 11 11 10 10 9 8 8 6 6 7 7 7 9 11 12 13 14 14 14 12 11 11 10 9 9 10 12 14 15 15 14 13 12 13
24 24 24 23 23 22 21 21 20 20 18 15 13 12 12 11 11 11 11 12 12 12 13 13 12 11 10 9 9 10 11 10 10 9 8 8 7 6 6 8 8 6 6 6 7 7 7 8 8 8 9 9 8 8 8 8 8 7 6 7 6 6 7 7 6 8 11 12 12 12 13 15 14 13 12 11 10 10 10 11 12 13 14 15 14 12 12
24 23 23 23 22 21 21 20 20 19 17 14 12 12 12 12 12 12 12 13 14 14 13 12 12 12 11 10 11 11 10 10 10 10 8 8 8 6 6 8 8 6 6 6 7 9 8 7 8 7 7 7 6 5 5 5 5 4 5 6 5 5 7 7 6 7 9 11 12 11 11 12 15 15 14 12 12 11 10 10 12 12 13 15 14 13 13
23 23 22 22 21 20 20 19 19 18 16 13 12 12 12 13 13 13 12 13 14 14 14 13 12 13 12 12 12 12 11 10 11 11 10 9 9 8 7 8 8 8 7 6 8 9 8 8 8 7 6 6 5 4 4 3 3 3 4 5 5 5 6 6 6 6 9 11 11 12 11 11 13 16 15 14 14 12 10 10 11 12 14 15 14 13 15
22 22 21 21 20 19 19 18 17 17 15 13 12 13 13 13 13 13 13 14 14 14 15 15 14 15 14 14 13 13 13 12 12 11 10 9 9 8 8 8 8 8 8 8 9 10 9 9 9 7 7 7 6 5 5 4 3 3 3 4 4 4 5 6 6 7 10 11 11 12 11 10 12 15 15 16 16 15 13 11 11 12 13 14 15 15 15
22 21 20 20 19 18 18 17 17 16 14 13 13 13 13 13 13 13 13 14 15 15 15 16 16 16 16 15 14 14 14 14 12 11 10 10 9 8 7 6 7 8 9 9 9 9 8 8 8 7 7 7 6 6 6 6 5 5 4 3 4 4 4 6 7 7 10 11 10 10 10 10 12 13 14 16 17 16 14 12 11 12 12 14 15 15 15
21 21 20 19 19 18 17 17 17 16 15 14 14 14 14 13 13 13 13 14 16 15 15 17 17 17 18 18 16 15 15 16 15 14 13 11 10 9 7 6 7 9 10 9 9 8 8 8 8 7 8 8 6 6 5 5 6 6 5 5 5 5 5 6 6 7 9 10 9 9 11 12 13 12 12 15 17 17 15 13 12 12 12 13 14 15 15
21 21 21 20 20 19 18 18 18 17 17 16 15 15 15 14 14 14 13 14 16 16 16 18 19 19 19 19 18 17 17 17 16 14 13 12 10 9 9 8 8 9 8 8 7 6 7 8 8 7 7 6 5 5 5 6 7 6 5 6 5 5 6 6 6 7 9 9 9 11 12 12 12 11 11 13 16 17 16 15 14 13 13 14 14 14 14
22 22 22 21 21 20 19 18 18 18 18 17 17 16 16 16 15 15 14 14 16 17 18 18 19 19 19 20 19 18 17 15 14 12 12 12 10 10 10 9 8 8 7 7 7 6 6 7 6 6 6 5 5 6 6 6 7 6 6 7 5 5 5 6 6 7 8 9 10 10 11 11 11 11 11 12 14 17 17 16 15 15 15 15 14 14 14
24 23 23 22 22 21 20 19 19 19 19 19 18 17 17 17 16 16 15 15 16 18 18 18 18 18 19 20 19 17 16 14 13 13 13 12 11 10 9 8 7 7 7 7 7 7 6 6 5 5 6 5 5 6 5 6 6 5 5 6 4 4 5 6 6 7 7 7 8 9 9 11 13 13 12 11 13 16 17 15 15 15 15 15 15 14 14
25 25 24 23 23 22 22 21 20 20 20 20 19 18 18 17 17 17 17 15 16 17 18 18 18 18 20 20 18 17 17 15 14 13 13 12 11 11 9 8 7 7 7 7 8 7 6 6 6 6 6 6 6 6 5 5 5 6 5 4 3 3 5 4 5 6 7 7 8 10 11 12 13 14 13 11 11 14 15 14 15 15 15 14 15 14 14
25 25 25 24 24 23 23 22 21 21 20 20 19 19 18 18 17 18 18 17 16 18 19 19 18 18 18 18 18 18 18 16 15 13 13 13 13 11 10 8 8 7 7 8 8 7 7 7 6 6 7 7 6 5 5 4 4 5 5 4 3 4 5 5 4 6 7 7 8 10 11 11 12 13 13 12 10 10 12 14 16 16 14 14 14 14 15
25 25 25 24 24 23 23 22 21 21 21 20 20 20 19 19 19 19 18 18 17 19 20 20 18 18 18 18 18 19 18 17 15 14 14 15 14 12 10 9 8 8 8 7 7 7 7 7 7 7 8 8 6 6 6 5 4 5 5 4 4 4 5 5 5 6 6 7 8 9 10 11 12 13 12 11 10 10 11 15 17 15 14 13 13 13 14
25 24 24 24 23 23 22 22 21 21 21 20 20 20 20 20 20 19 19 19 18 19 20 19 18 19 19 18 18 19 18 17 16 15 15 15 14 13 11 10 9 9 8 7 6 7 7 8 7 7 7 8 7 6 6 5 5 5 4 4 4 5 5 5 5 5 6 7 7 8 9 10 11 11 11 11 11 11 12 13 14 14 14 13 12 12 12
24 24 24 24 23 23 22 22 21 21 21 20 20 20 20 20 20 19 19 19 19 20 21 20 20 20 19 19 19 18 18 17 16 15 15 15 14 12 11 11 11 10 8 7 7 7 8 9 9 8 8 8 8 7 6 6 6 6 5 5 5 5 5 5 5 5 5 5 6 7 8 9 10 10 10 11 11 12 11 10 11 13 13 13 12 12 12
24 24 23 23 23 22 22 21 21 21 21 20 20 20 20 19 19 19 19 19 18 18 18 18 18 19 19 19 20 19 19 19 18 17 16 17 15 13 13 13 12 11 9 8 8 8 9 9 9 9 8 8 8 7 7 6 6 6 5 4 5 5 4 5 6 5 5 5 6 8 9 9 8 9 10 10 11 11 11 10 10 11 12 13 12 12 12
24 23 23 23 22 22 21 21 21 20 20 20 20 20 20 19 19 18 18 18 18 19 19 18 18 20 21 22 22 21 21 22 21 19 18 17 16 15 14 13 11 11 10 9 8 9 9 9 9 9 9 8 8 8 7 7 7 7 5 3 4 5 5 5 5 5 5 6 8 8 8 8 7 7 8 9 9 9 10 10 10 10 10 11 12 11 11
23 23 23 22 22 21 21 20 20 20 20 20 20 19 19 18 18 18 18 18 18 20 21 20 20 20 21 21 21 21 21 21 21 21 20 18 17 16 15 13 12 11 11 9 9 9 10 9 9 9 9 9 8 8 7 8 8 7 5 4 5 5 4 3 4 5 5 5 6 6 6 6 6 6 7 7 8 9 9 9 9 9 9 10 11 11 11
23 23 22 21 21 20 20 20 20 20 19 19 19 19 18 17 17 17 17 17 17 17 18 18 18 18 19 19 19 19 19 19 19 19 19 19 18 16 14 14 13 11 11 11 10 10 10 10 9 9 9 9 9 8 8 9 9 8 6 6 6 5 4 3 3 3 4 4 6 6 5 6 6 6 6 7 7 8 8 8 8 8 8 9 10 11 11
22 22 21 21 20 20 19 19 19 19 19 18 18 17 17 17 16 16 16 16 15 15 15 15 16 17 18 18 19 19 19 18 18 18 19 20 21 18 16 15 13 12 12 12 10 10 10 10 10 9 10 9 9 9 9 9 9 8 7 7 7 6 4 3 2 3 3 5 6 5 5 6 7 7 7 7 7 7 7 7 7 6 7 8 9 10 10
22 21 21 20 20 19 19 19 19 18 18 17 17 16 16 16 16 16 15 15 15 15 15 15 16 17 17 18 20 20 20 19 19 19 18 20 22 21 18 15 13 12 12 11 11 11 11 11 10 10 10 10 10 10 9 9 8 7 7 8 7 5 4 4 3 2 3 4 4 4 4 5 6 7 8 8 8 8 7 7 7 7 7 7 8 8 9
21 21 20 20 19 19 19 19 18 17 17 16 16 16 16 16 17 16 16 15 14 14 13 14 15 15 16 18 20 20 20 20 20 19 18 19 20 21 19 16 14 13 13 12 11 11 11 11 11 12 12 11 10 10 9 9 8 7 7 8 7 5 5 4 3 3 3 4 5 6 5 5 7 8 8 8 9 8 8 7 7 7 7 7 7 7 7
20 20 19 19 19 19 19 18 17 16 16 16 16 16 16 16 17 17 16 15 15 14 13 14 14 15 15 17 18 19 20 20 20 20 19 19 19 20 18 16 15 15 14 13 12 12 12 12 12 13 12 12 11 10 9 9 8 8 8 9 8 7 7 6 5 4 5 6 7 7 5 5 8 9 9 9 9 8 8 8 7 7 7 7 7 7 7
20 19 19 18 18 18 17 17 16 16 15 15 15 15 15 15 15 16 16 15 15 15 15 15 14 14 14 16 17 18 20 20 19 20 20 19 20 20 19 17 16 16 15 14 14 13 13 13 13 13 12 12 12 11 10 9 9 9 10 9 9 8 9 9 7 6 5 7 9 8 6 7 8 8 8 9 8 8 8 8 7 7 7 6 6 6 6
19 19 18 18 17 17 16 16 16 15 14 14 14 13 12 12 12 13 15 15 15 14 14 14 13 13 14 15 17 18 20 20 20 20 20 20 21 21 19 18 17 17 16 15 15 15 15 14 14 13 13 13 12 11 11 11 11 11 10 10 9 9 10 10 8 6 5 7 9 8 6 7 8 7 7 8 8 8 8 7 7 7 7 6 6 6 6
19 18 18 17 17 16 16 16 15 15 14 13 13 12 11 11 11 11 12 13 14 14 13 13 14 14 13 14 16 17 19 20 20 19 20 20 21 20 19 18 17 16 16 15 15 15 15 15 14 14 14 13 12 11 11 11 11 11 11 10 10 10 11 10 8 7 6 7 8 7 6 7 8 7 7 7 8 8 7 7 7 7 7 6 6 6 6
18 18 17 17 16 16 16 15 15 15 14 14 14 13 12 11 11 11 11 11 13 13 12 12 13 12 12 13 14 15 17 19 18 18 18 19 20 20 19 18 18 17 15 15 15 15 15 16 15 15 15 14 13 11 11 11 11 12 12 11 10 10 11 10 9 7 7 9 9 7 6 8 9 8 8 8 8 8 7 7 7 7 7 6 6 6 6
17 17 17 16 16 16 16 15 15 15 15 15 16 16 14 13 13 13 12 11 11 12 12 11 11 12 12 12 13 14 15 16 17 16 16 17 19 19 18 17 17 16 15 15 15 15 15 15 15 16 16 15 13 12 12 13 13 13 12 11 11 10 10 10 9 9 10 10 10 9 9 10 10 9 9 9 8 7 7 7 7 6 6 6 6 5 5
17 16 16 16 16 15 15 15 14 14 14 14 14 14 14 13 13 13 12 11 11 12 12 11 11 12 12 11 12 13 13 14 15 16 15 16 18 18 17 17 16 15 15 14 14 14 14 14 15 16 16 15 14 13 13 14 14 13 13 12 11 11 10 10 10 11 11 11 10 9 10 10 10 9 9 8 7 7 7 7 7 6 6 6 6 5 5
16 16 15 15 15 15 15 14 14 14 13 13 12 12 13 13 13 13 13 12 11 11 11 12 12 12 12 11 12 13 13 13 15 16 16 16 16 16 17 17 16 15 15 15 14 13 13 14 15 16 16 16 15 15 15 14 14 14 13 13 13 12 11 11 11 12 11 10 10 9 10 10 10 10 9 9 8 7 7 7 7 7 6 6 6 5 5
15 15 15 14 14 14 13 13 13 13 12 11 11 11 11 12 12 12 12 12 11 11 11 11 11 12 12 12 13 13 13 13 14 15 16 16 16 15 15 16 15 15 15 14 14 14 14 14 15 16 16 16 16 16 16 16 16 15 15 15 14 14 13 12 13 12 11 10 10 10 11 11 11 11 10 9 9 8 8 8 7 7 7 7 6 6 6
14 14 13 13 12 12 12 12 12 12 11 10 10 9 9 9 10 11 12 12 12 12 11 11 11 12 13 13 13 13 12 13 14 14 15 16 16 15 15 14 15 16 15 14 14 14 14 14 14 15 16 17 17 16 16 16 17 17 16 15 15 14 13 12 12 12 10 9 10 11 11 12 12 11 11 11 10 9 9 9 9 8 8 8 8 8 8
13 13 13 12 12 11 11 11 11 11 11 10 10 9 9 9 10 10 11 12 12 13 12 11 12 13 13 13 13 13 13 13 14 15 15 15 16 16 15 15 15 15 15 15 15 15 14 14 14 14 16 17 17 16 16 16 17 17 16 16 15 14 13 12 12 12 11 10 11 12 12 12 12 12 12 11 10 10 9 9 9 9 8 8 8 8 8
13 13 12 12 12 11 11 10 11 11 11 10 10 10 10 10 10 11 11 11 12 12 13 13 13 14 14 14 14 14 13 13 13 15 16 16 16 16 16 16 16 15 15 16 16 15 14 14 14 14 15 16 17 17 17 17 17 17 16 16 15 14 13 13 13 13 13 13 13 13 13 13 13 12 11 10 9 9 9 9 9 9 8 8 9 9 9
13 13 12 12 12 11 11 11 11 10 10 10 10 10 10 11 11 11 11 11 12 13 13 13 14 15 15 15 15 14 14 13 13 14 15 16 16 16 15 15 15 14 15 16 15 14 14 14 14 15 15 16 17 17 17 17 18 17 17 16 16 15 14 13 13 13 13 12 13 13 13 13 13 12 11 11 10 9 9 9 9 9 9 9 9 10 10
13 12 12 11 11 11 10 10 10 10 10 10 10 10 10 11 11 11 11 11 12 13 13 13 14 15 16 16 16 16 15 14 14 13 13 14 15 15 15 15 14 13 14 15 15 14 13 14 14 15 15 16 17 18 17 17 18 18 17 17 16 15 14 14 13 12 12 11 11 12 13 13 12 12 12 11 11 10 10 10 10 10 10 10 11 11 12
13 12 11 11 11 10 10 10 10 10 10 9 10 10 11 10 11 11 11 11 12 12 13 13 14 15 16 17 17 17 16 16 15 13 13 14 14 15 15 14 13 13 14 14 13 13 13 14 14 14 15 16 17 18 18 18 18 18 18 17 17 16 15 14 13 13 12 11 11 12 12 12 12 12 12 12 11 11 11 11 11 11 11 12 12 13 13
13 12 11 10 10 10 10 10 10 10 10 9 9 10 10 10 10 10 10 11 11 11 12 12 13 13 14 15 16 16 16 16 15 14 13 14 14 14 14 15 14 13 13 13 12 12 13 14 14 14 15 16 17 18 18 18 18 17 17 17 17 16 15 14 13 13 12 11 11 12 12 11 12 12 12 12 11 11 11 11 12 12 12 12 13 13 14
12 11 11 11 11 10 10 10 10 10 9 9 9 9 9 9 9 9 9 9 9 10 10 11 11 11 12 14 15 15 15 16 15 13 13 13 14 13 13 14 15 14 13 12 12 12 13 13 14 14 14 14 16 17 18 18 17 17 17 16 16 16 15 14 13 12 12 11 11 11 11 11 11 11 12 12 12 11 12 12 12 12 12 12 13 14 14
11 11 11 10 10 10 10 9 9 9 9 9 9 9 8 8 8 8 8 8 8 8 8 9 9 10 11 12 13 14 14 15 15 14 13 12 13 12 12 12 13 13 12 12 12 11 12 12 12 13 14 14 16 16 17 18 17 17 16 16 16 16 15 14 13 13 12 12 11 11 11 11 11 11 11 11 11 11 12 12 12 12 13 13 14 15 16
11 11 10 10 10 10 9 9 9 8 8 8 8 8 8 8 8 8 8 8 8 7 7 8 9 9 10 11 12 13 14 15 15 14 13 12 12 12 11 10 11 11 12 12 12 11 11 11 12 12 14 15 15 16 17 17 17 17 16 16 16 15 15 14 13 13 12 12 12 11 11 11 11 11 11 11 11 11 11 12 12 13 14 14 15 16 16
11 11 10 10 10 10 9 9 9 8 8 7 8 8 8 8 8 8 8 8 7 7 7 8 9 9 10 10 11 12 13 14 15 15 14 13 12 11 10 10 10 11 12 12 12 11 10 11 11 12 13 14 14 15 16 17 17 16 16 16 15 15 14 14 13 13 12 12 11 11 11 11 10 10 11 11 11 11 12 12 13 14 14 15 16 16 17
11 10 10 10 10 9 9 9 8 8 8 8 8 8 8 8 8 8 8 8 8 7 7 8 9 9 9 10 10 10 12 13 14 15 14 13 12 11 10 9 10 11 11 11 11 10 10 10 11 12 13 13 14 15 16 17 17 16 16 15 15 15 14 14 13 13 13 12 11 11 10 10 10 10 10 11 11 12 13 13 14 14 15 15 16 16 17
10 10 10 10 9 9 9 8 8 8 8 7 6 6 6 7 8 8 8 8 8 8 7 8 9 9 9 9 10 10 11 13 14 14 14 13 13 12 10 10 10 10 10 10 10 10 10 11 11 11 12 13 14 15 16 16 16 16 16 16 15 15 14 14 13 13 12 12 11 11 11 10 10 10 11 11 12 13 13 14 14 15 15 16 16 17 17
10 10 10 9 8 8 7 7 7 6 6 6 5 6 6 7 7 8 8 8 8 8 7 7 8 9 10 10 9 10 11 12 13 13 13 14 13 12 11 11 10 10 9 9 9 10 11 11 11 11 12 13 14 15 16 16 16 16 15 15 15 14 14 13 13 12 12 12 11 11 11 11 11 11 11 12 12 13 13 14 14 15 15 16 16 16 17
10 10 9 10 10 9 8 7 6 7 7 6 6 7 7 7 7 7 7 8 8 8 8 8 8 9 9 10 10 10 10 11 12 13 13 13 13 12 11 11 10 10 9 9 10 10 10 10 11 11 12 13 14 15 16 16 16 16 15 15 14 14 13 13 13 12 12 11 11 11 11 11 11 11 11 12 12 13 13 14 15 15 15 16 16 16 17
10 9 9 10 10 10 9 8 7 8 8 7 7 7 7 7 7 7 7 8 8 9 9 9 8 8 9 11 11 11 10 11 12 12 13 12 12 12 12 11 10 10 10 10 10 10 10 10 10 11 12 13 14 15 16 16 16 15 15 14 14 14 13 13 12 12 11 11 11 11 11 11 11 11 11 11 12 13 14 14 15 15 15 16 16 16 17
Wind_Direction
313 314 315 315 316 317 319 322 323 325 327 325 322 315 302 293 281 278 291 282 258 259 261 256 253 252 266 274 275 281 284 282 287 290 287 287 291 294 292 289 291 288 287 290 289 289 299 306 305 301 298 289 285 296 304 300 294 287 272 272 265 244 237 238 235 230 226 223 220 219 220 217 211 215 218 214 219 221 213 211 215 214 217 217 212 214 222
311 311 312 312 313 313 315 318 319 322 324 321 318 310 296 288 278 274 287 283 260 253 253 253 258 267 278 280 280 287 285 277 276 272 267 274 283 288 287 283 282 283 284 281 275 276 286 293 294 295 293 285 284 295 305 303 293 281 266 264 271 258 244 240 235 230 230 226 223 222 224 220 214 221 230 225 227 227 217 215 217 216 220 218 213 216 221
308 309 309 310 311 311 311 314 315 317 318 316 311 302 290 284 273 269 279 281 264 252 247 248 259 270 278 279 283 292 290 281 273 262 261 271 282 291 287 277 273 280 289 288 281 278 276 282 290 292 290 285 285 295 302 298 288 281 269 260 264 258 241 233 223 220 221 220 221 223 225 226 222 225 233 232 234 231 219 216 216 215 220 219 215 219 222
305 306 307 307 309 308 308 310 311 312 313 311 304 295 286 277 270 270 275 274 267 259 254 255 260 267 276 279 282 288 292 293 281 265 269 276 280 295 295 283 275 281 287 283 284 286 284 288 291 288 287 284 283 291 297 296 290 285 278 268 260 250 241 229 215 214 216 216 219 221 219 221 224 229 232 232 236 236 223 215 217 218 220 219 220 223 222
302 303 304 305 306 306 305 306 308 309 309 305 297 290 281 271 266 266 267 268 268 265 264 266 264 266 273 273 278 287 291 292 286 279 279 278 279 293 301 297 280 270 271 273 281 290 293 295 294 289 287 283 284 289 290 291 292 283 272 267 255 242 248 237 217 217 216 211 216 219 215 217 222 225 228 229 235 237 225 219 224 223 220 222 227 224 220
300 301 302 302 304 303 303 303 305 306 306 299 291 285 277 269 265 261 258 258 259 259 264 268 266 268 272 268 275 287 288 284 281 281 283 284 283 286 297 305 289 259 257 265 273 283 291 294 294 292 292 293 297 298 289 283 283 274 265 263 247 230 242 243 225 221 220 218 220 217 214 219 222 222 224 225 230 234 227 226 230 224 216 220 226 222 218
299 300 300 301 302 301 301 301 302 304 302 293 286 281 274 269 266 263 259 255 254 256 262 265 264 266 269 269 276 286 289 289 284 278 279 282 279 271 277 293 295 277 270 271 266 267 274 287 291 291 294 298 304 307 300 292 285 269 258 258 242 227 240 244 232 221 222 228 229 220 217 222 224 228 229 223 221 225 225 228 232 224 214 216 222 221 219
298 299 300 300 300 300 299 299 300 302 298 287 282 280 274 269 265 265 264 259 257 258 261 262 262 264 265 266 274 281 286 293 294 284 274 267 269 270 264 272 285 290 289 284 272 262 259 273 283 285 293 301 302 302 304 306 306 282 248 249 246 236 241 244 236 225 225 231 230 224 222 221 221 226 230 223 219 221 221 224 226 222 217 219 221 222 221
297 298 299 299 300 299 299 298 298 301 296 283 277 278 275 270 264 263 263 260 258 258 260 261 260 261 263 264 273 277 276 286 293 284 271 262 261 262 259 266 282 292 290 288 279 266 256 263 271 268 273 284 284 284 289 300 313 294 253 253 253 239 238 241 235 225 226 230 229 227 230 228 223 225 229 226 220 218 218 220 221 220 220 221 220 220 222
295 297 298 298 299 298 298 297 297 299 294 281 274 275 277 275 267 263 260 259 260 258 258 260 259 257 260 265 272 272 269 281 289 278 273 275 264 253 253 267 283 287 281 279 275 265 255 259 266 264 264 271 272 270 272 272 272 262 255 262 255 235 233 239 235 229 231 234 233 231 237 239 232 230 230 225 217 214 216 218 222 223 221 219 218 219 222
292 294 296 296 297 297 297 295 294 296 291 282 275 273 276 276 270 266 263 260 262 261 257 257 257 257 263 269 272 270 269 278 282 268 266 273 264 256 258 267 279 279 274 274 273 266 259 261 266 265 265 274 275 265 263 267 262 248 240 253 259 247 240 242 239 233 238 242 238 234 239 239 232 230 229 221 212 210 214 219 224 226 223 219 219 221 223
290 292 293 294 295 295 295 292 290 291 288 282 276 272 273 274 270 268 265 261 263 265 260 256 255 257 264 267 267 267 268 274 276 266 259 259 257 259 263 266 277 279 276 279 280 274 268 271 275 273 275 282 275 254 258 280 282 263 240 237 250 254 251 251 247 239 240 243 235 231 237 236 231 230 229 220 213 208 210 218 223 225 226 222 221 223 223
287 290 291 292 293 293 293 290 287 286 285 281 276 271 271 272 270 267 264 262 264 264 261 261 260 259 262 264 263 265 270 275 276 264 253 250 253 258 262 266 275 277 276 281 286 281 272 273 275 272 275 286 277 255 261 281 282 270 255 247 245 243 247 252 252 246 244 241 233 232 236 236 234 233 229 223 219 214 214 222 227 227 229 226 224 225 222
283 286 288 289 291 291 290 289 286 283 282 280 276 272 270 269 267 266 266 264 264 263 261 262 264 262 262 263 262 264 270 276 275 262 250 248 250 255 261 266 270 273 275 281 290 288 270 264 270 270 269 278 275 261 263 271 268 263 267 267 254 237 247 258 256 249 242 236 234 236 237 235 234 233 228 223 222 218 214 220 228 229 228 228 226 226 222
280 282 284 285 287 288 288 288 287 283 280 279 276 272 269 267 265 266 267 265 265 266 261 258 261 263 263 262 259 259 264 265 261 256 253 251 250 252 260 264 266 271 276 280 283 278 261 251 256 263 261 257 254 257 264 268 268 268 271 268 257 245 251 253 249 247 239 231 231 234 235 233 230 231 232 230 228 222 214 216 227 228 226 227 226 224 223
277 279 281 281 283 284 285 286 286 283 280 277 275 272 269 266 264 265 267 265 266 267 261 256 260 263 260 258 255 254 255 253 249 251 254 254 252 251 254 261 269 274 279 280 276 268 252 242 242 246 245 240 241 254 266 266 268 280 287 280 263 259 263 259 253 249 239 227 225 225 229 233 229 228 234 239 236 226 216 218 228 226 221 225 226 223 224
276 277 279 279 280 281 281 282 283 282 280 276 274 270 267 266 264 264 266 265 265 267 263 259 262 262 257 254 252 249 249 249 246 244 246 250 252 250 250 258 270 277 281 283 279 265 243 236 240 243 244 241 237 248 262 258 256 272 288 296 280 266 270 272 262 249 240 232 231 229 230 233 229 226 234 239 234 222 215 219 225 222 218 222 224 223 224
276 276 277 278 278 279 279 279 279 279 279 276 273 269 266 265 265 264 266 266 265 267 265 260 258 256 252 249 247 246 246 247 245 242 243 246 247 247 248 252 262 274 283 284 275 254 234 232 238 237 240 244 241 244 253 252 245 252 263 274 274 269 270 267 253 245 241 234 234 237 237 233 229 229 234 233 223 217 218 220 221 217 216 221 222 221 223
275 276 276 276 277 277 277 277 276 276 276 276 274 270 266 266 265 264 265 265 263 264 264 259 254 253 251 248 245 243 243 243 241 239 240 241 242 245 248 249 256 270 283 285 268 244 230 233 238 233 233 242 242 239 242 247 248 248 250 260 267 265 269 271 259 247 242 234 233 240 239 232 230 233 233 225 219 222 225 222 216 213 213 219 222 222 221
275 275 275 275 276 276 276 275 275 274 274 275 274 271 268 267 265 264 265 264 262 262 263 259 254 251 249 245 241 240 240 240 237 233 232 237 243 247 247 248 255 265 275 276 263 247 234 232 237 236 233 237 238 235 239 251 255 247 241 252 258 253 258 267 257 242 240 239 236 235 234 233 235 234 228 223 222 225 222 215 212 213 215 219 223 224 222
274 274 274 275 276 275 274 274 273 273 272 273 274 272 270 267 265 265 266 263 259 259 259 256 251 249 246 241 238 238 238 237 236 235 235 240 244 242 240 243 249 257 263 260 254 248 238 231 234 238 236 237 239 236 235 244 254 252 246 253 259 255 254 256 252 244 239 234 232 230 232 237 236 226 220 222 223 221 215 209 210 214 218 219 221 222 221
273 273 274 275 275 275 273 272 271 271 272 272 273 272 270 266 265 266 265 260 255 255 255 254 253 253 250 245 241 239 238 238 239 238 237 239 241 240 240 242 244 249 255 254 248 245 241 234 232 235 236 236 238 237 231 231 243 253 256 257 258 254 245 239 243 245 238 231 233 234 234 233 226 215 214 216 215 213 209 206 207 211 214 214 212 212 214
272 273 274 274 274 274 272 271 270 270 271 271 271 270 269 267 265 264 263 259 257 257 256 255 255 253 249 244 240 237 235 236 236 234 231 232 236 239 241 239 240 248 253 251 245 239 237 236 233 231 235 236 233 233 234 234 239 243 244 248 256 254 246 241 243 245 243 240 237 231 223 218 214 210 209 206 204 206 204 200 203 208 208 206 204 204 206
271 272 273 272 273 272 271 270 270 269 270 270 269 268 268 267 265 264 261 258 258 259 257 253 248 245 243 240 237 234 232 230 231 232 230 227 229 236 240 237 237 245 248 247 245 239 235 238 237 233 235 236 230 228 232 235 237 236 235 249 260 256 249 248 243 240 242 243 241 233 218 208 202 197 197 195 193 197 197 193 197 201 199 199 198 196 199
269 270 270 270 271 271 270 269 269 268 268 268 267 266 266 265 263 262 260 257 256 256 254 250 245 243 242 241 237 233 231 230 230 232 231 227 226 231 237 236 235 238 240 243 245 239 234 236 236 233 235 235 231 230 232 232 235 235 234 243 250 246 238 237 240 239 234 234 237 232 213 203 198 192 191 190 186 187 186 184 187 189 188 191 193 193 196
268 268 268 268 269 269 268 268 268 267 266 266 265 265 264 264 262 259 258 256 254 253 251 249 247 246 244 242 239 235 233 232 231 232 232 230 228 229 231 232 232 234 238 242 242 236 232 234 235 233 235 234 230 230 231 231 232 235 235 236 235 227 223 223 219 221 233 237 230 212 197 198 197 190 190 189 186 182 179 176 177 177 178 183 190 196 201
266 266 267 268 268 267 266 266 266 264 263 264 265 265 264 263 260 256 253 250 251 252 250 247 247 249 248 244 240 235 231 231 231 232 233 232 227 223 222 225 227 230 235 240 241 238 234 236 236 234 233 232 228 228 230 229 227 230 232 231 227 219 224 228 213 208 232 233 208 192 190 198 197 191 189 190 187 182 178 176 175 175 176 178 182 192 198
264 265 266 267 266 265 264 263 262 260 262 264 266 266 265 263 258 253 249 246 246 248 249 249 251 253 250 244 237 232 230 230 230 230 233 232 224 216 217 222 227 230 233 236 239 238 235 234 234 233 231 228 226 229 231 227 226 231 231 229 225 216 212 212 205 211 228 217 195 184 180 185 189 187 185 186 185 181 181 185 185 184 184 182 179 181 187
263 264 265 266 264 263 261 259 258 258 261 264 267 267 266 262 257 251 245 243 243 246 250 254 254 249 243 241 238 233 229 229 229 230 231 229 223 217 217 223 228 231 233 234 235 237 236 234 233 233 231 226 224 229 231 225 224 230 230 227 226 217 208 203 199 204 218 208 192 186 179 176 179 180 179 180 180 178 180 186 189 190 191 189 185 185 186
262 263 263 262 261 259 257 255 255 257 259 263 266 267 264 262 258 250 242 240 241 244 247 250 249 246 244 242 239 234 230 229 231 232 230 227 224 221 220 223 228 232 234 235 236 237 237 236 234 233 231 225 221 226 228 224 226 233 232 229 227 220 215 213 209 208 213 202 190 187 184 177 175 175 175 177 179 177 178 182 187 187 187 186 186 189 190
261 261 261 260 258 255 253 252 253 256 258 259 261 261 261 261 257 248 241 238 239 242 246 247 247 248 247 241 235 233 231 230 231 232 231 227 223 221 221 223 226 230 233 236 238 239 237 235 232 229 226 222 220 223 224 221 227 233 231 227 226 221 216 216 217 215 209 195 186 186 186 178 174 174 177 180 181 178 176 179 181 179 176 176 178 182 185
259 259 258 257 254 252 251 251 253 255 256 256 256 257 259 260 254 247 243 242 240 240 244 247 246 243 241 238 235 232 229 228 227 228 229 225 221 220 223 224 225 229 233 236 239 241 239 233 228 224 222 219 219 222 221 219 223 228 224 221 223 222 215 213 214 213 204 192 185 184 188 188 188 187 185 185 184 179 176 176 175 172 171 174 176 180 185
257 256 254 252 250 250 250 251 254 255 257 258 258 257 257 256 252 246 243 243 242 241 242 243 241 237 236 237 235 229 225 225 224 222 224 224 221 220 223 225 225 229 235 236 236 239 238 230 223 221 221 220 219 220 222 223 225 225 220 217 219 218 214 212 212 210 206 201 198 196 196 196 197 193 188 186 186 185 183 182 181 179 181 184 189 194 198
255 254 251 249 248 248 249 251 254 256 258 259 258 255 251 249 247 242 238 239 243 244 243 241 238 235 234 234 231 227 225 226 223 219 221 224 222 219 221 224 225 228 233 233 232 235 237 229 220 218 221 222 220 221 225 229 229 223 218 218 219 216 212 212 213 211 209 208 209 209 202 195 193 192 190 191 194 195 193 193 193 195 199 203 208 212 215
253 250 247 246 246 247 249 251 253 255 256 255 254 253 248 244 242 237 235 238 243 245 243 240 236 233 230 228 228 230 229 227 224 220 219 220 219 218 220 224 225 226 228 228 229 233 234 228 220 218 221 223 222 223 226 227 223 218 214 216 217 214 211 212 214 214 212 211 211 211 204 197 196 198 199 201 205 205 205 208 210 210 213 219 225 230 233
249 245 244 244 244 245 247 247 247 248 249 249 251 252 247 240 237 235 234 238 243 244 244 241 235 230 225 224 228 231 228 225 223 220 219 219 220 221 223 223 224 226 228 228 229 232 231 225 220 221 223 222 222 224 225 219 215 214 213 213 214 213 214 215 213 212 213 214 212 210 206 203 203 205 207 210 213 213 213 217 221 221 223 227 233 240 245
242 240 239 239 238 239 243 244 242 242 244 245 247 248 244 238 237 237 239 241 243 244 244 241 237 232 225 223 226 228 226 224 222 220 220 222 223 224 223 220 222 227 229 228 229 230 227 224 221 221 223 223 222 224 223 217 213 214 213 211 212 215 216 215 212 209 212 216 214 212 210 208 209 211 211 213 216 217 218 222 227 228 228 233 239 245 249
237 235 233 232 233 237 241 242 241 241 241 242 243 245 245 244 242 242 243 244 243 243 241 238 237 234 226 223 225 227 226 225 222 220 222 224 224 225 224 222 223 228 229 229 230 229 227 227 225 222 224 225 224 222 221 218 216 215 212 209 211 213 214 214 212 208 210 215 215 213 212 210 211 215 215 216 219 222 224 227 230 231 233 237 244 249 253
231 229 227 228 233 239 243 244 243 240 239 240 243 246 247 246 246 246 246 245 244 243 240 236 235 231 224 223 228 229 226 227 227 225 225 225 224 224 224 225 227 229 229 230 230 227 226 230 230 225 225 227 224 222 220 217 216 215 213 210 211 212 213 214 214 212 213 216 216 215 213 212 211 213 215 217 221 226 229 230 232 235 239 244 249 253 257
226 225 226 230 236 242 245 244 241 238 239 242 247 250 249 248 248 248 247 247 247 245 239 236 236 232 225 223 227 228 227 227 226 224 224 224 223 221 221 222 224 224 226 229 229 225 224 228 229 226 225 225 222 220 218 215 214 215 213 211 212 213 214 216 218 217 218 220 218 216 215 213 211 212 215 218 222 227 233 236 239 242 246 251 254 258 261
222 223 228 235 242 246 244 238 234 237 243 247 248 250 251 250 251 251 250 249 250 247 240 236 234 232 228 224 224 226 228 227 223 220 221 223 222 219 217 217 218 219 222 226 227 224 224 226 227 227 226 223 220 218 216 214 214 215 213 213 214 215 215 216 217 217 219 221 220 218 216 214 214 216 218 221 225 230 235 240 245 248 251 255 259 262 266
222 225 233 241 244 241 238 235 235 241 247 249 250 253 253 252 253 254 252 249 248 246 241 235 232 231 229 225 223 224 224 223 221 221 221 219 218 216 215 214 216 220 224 225 226 225 225 227 228 228 226 222 219 216 213 212 214 214 213 213 215 215 215 216 216 217 218 218 218 217 216 216 217 220 221 222 228 235 240 243 247 251 254 258 262 266 268
225 229 236 241 239 235 235 239 241 244 248 251 251 253 254 254 253 253 252 250 247 244 240 237 234 231 228 224 221 220 219 217 218 220 219 216 216 216 215 215 218 223 226 226 224 224 224 225 226 226 223 220 217 215 213 212 213 212 212 213 214 213 213 213 213 215 218 216 214 214 215 216 218 222 224 226 231 238 244 247 249 252 256 260 264 267 270
225 230 235 237 235 232 234 240 242 242 246 248 247 246 250 253 251 248 247 246 242 238 236 232 226 222 222 219 216 215 214 212 211 212 213 214 213 213 214 216 219 221 223 223 222 223 224 224 223 222 220 217 215 213 212 211 210 209 210 211 211 210 210 210 210 212 215 215 213 213 215 217 220 225 229 232 235 239 244 248 252 255 259 263 267 271 275
226 231 234 235 234 231 232 239 242 242 243 245 243 242 245 247 244 240 239 237 232 230 230 223 214 212 215 214 211 210 210 207 205 205 207 207 207 208 210 214 216 218 220 221 222 223 225 224 222 219 218 215 213 211 209 208 208 206 206 206 207 207 208 208 209 211 212 213 213 215 218 221 224 228 232 236 239 242 246 250 254 259 264 268 272 276 278
228 230 228 228 230 231 230 234 239 240 241 241 239 236 235 234 233 230 228 225 223 223 222 216 209 207 207 205 204 206 205 202 201 200 199 197 201 205 207 209 212 214 217 219 222 224 224 223 219 216 214 213 211 208 207 206 205 204 203 203 204 206 207 206 207 209 210 211 213 217 221 225 228 231 234 239 244 248 252 256 260 264 269 272 275 278 280
228 228 225 226 230 231 230 231 234 236 236 234 232 230 228 227 228 226 220 215 213 215 215 210 206 204 201 198 199 202 201 198 197 198 199 199 202 207 209 211 214 214 213 216 221 224 221 218 217 215 213 210 207 205 203 202 202 202 201 201 202 203 204 205 206 208 209 211 214 218 223 227 231 235 240 245 250 254 258 263 267 271 273 275 278 280 283
226 225 224 224 225 226 226 227 229 231 232 232 232 230 225 219 219 221 218 210 205 203 203 200 198 197 197 195 194 196 196 195 196 199 201 201 202 204 208 213 216 215 213 215 217 217 214 213 214 212 209 206 204 202 200 200 199 199 198 198 199 200 202 204 205 207 209 211 215 220 226 231 236 242 246 251 256 260 264 268 271 274 276 277 280 283 284
222 222 223 222 221 223 224 222 221 224 228 229 226 221 215 211 212 214 212 205 200 199 199 196 192 192 194 193 191 192 195 197 197 199 201 201 202 205 209 211 214 216 216 214 213 214 214 213 211 208 206 204 203 201 199 198 197 197 197 197 198 199 200 202 203 206 209 213 218 225 231 237 243 248 252 256 260 264 267 270 272 274 276 278 281 283 284
219 220 221 219 217 218 218 213 211 215 222 223 219 215 214 212 211 208 205 200 196 194 193 194 194 194 193 191 190 193 198 197 194 195 200 203 205 208 211 212 213 214 214 211 211 215 217 214 210 208 206 204 202 200 198 196 196 197 196 196 197 198 200 202 204 208 213 218 222 228 235 242 248 251 255 259 263 267 269 271 273 275 277 279 281 283 285
216 217 217 214 212 212 212 209 209 213 217 222 224 219 213 211 211 207 202 197 192 189 190 193 192 189 189 190 191 193 195 194 193 196 202 206 206 207 209 211 212 212 211 213 215 216 215 212 209 207 205 202 200 199 196 194 194 195 195 196 198 201 203 206 209 213 218 223 227 233 241 248 251 254 258 262 266 269 271 272 273 275 277 280 282 284 286
211 212 214 213 212 213 214 216 217 217 217 220 223 217 211 212 214 208 201 197 194 193 193 192 187 184 188 193 194 193 193 194 196 200 204 207 207 205 205 208 211 211 212 216 218 215 211 210 209 207 204 201 198 196 194 192 193 195 196 199 201 204 207 211 214 218 223 229 235 241 247 251 254 257 261 264 266 269 271 272 273 275 278 281 284 286 289